Temp
78 76 76 75 75 75 75 75 75 75 75 75 75 74 72 71 76 76 75 76 74 76 76 74 76 76 76 76 75 75 76 76 75
77 75 76 75 75 75 75 75 75 75 75 75 74 73 70 76 76 76 77 77 76 77 76 76 75 75 75 75 75 75 75 75 76
76 75 74 74 75 75 75 75 75 74 74 74 73 71 70 74 76 76 78 76 77 76 75 75 75 74 74 74 74 74 74 74 73
75 74 74 74 75 75 75 75 74 74 74 73 71 69 68 76 76 76 78 74 76 75 75 74 74 73 73 73 73 72 72 72 72
73 73 74 75 75 74 74 74 74 73 73 72 70 68 68 75 74 77 77 75 75 75 74 73 72 72 72 71 71 71 71 71 70
74 71 71 73 74 74 74 73 72 70 69 69 67 67 74 74 75 76 73 74 74 73 73 72 71 71 71 70 70 70 70 69 69
74 70 70 72 72 72 73 72 69 69 72 72 67 73 72 73 73 75 72 73 73 72 71 71 71 70 70 70 69 69 69 69 68
74 73 74 74 70 75 73 72 73 71 71 70 71 70 70 72 72 71 71 73 72 71 71 70 70 69 69 69 68 68 68 68 68
72 73 72 72 73 72 72 72 70 69 69 70 70 69 69 71 71 71 69 71 71 71 70 70 69 69 68 68 67 67 67 66 66
72 72 72 72 71 71 70 70 70 69 68 68 68 68 68 68 69 72 66 69 70 70 70 69 69 68 68 67 67 66 65 65 65
70 71 70 71 71 71 70 69 69 68 68 66 66 66 66 67 67 69 71 67 68 69 69 68 68 68 68 67 66 65 65 64 64
71 71 70 71 70 69 68 67 67 66 66 65 65 64 65 65 66 66 68 68 65 67 68 67 67 67 67 67 66 65 64 64 63
70 70 69 70 69 68 66 65 64 65 65 64 63 63 63 63 64 64 65 65 67 66 66 65 66 65 65 66 65 65 64 64 63
71 70 70 69 68 66 65 63 64 62 62 62 61 61 62 62 62 63 62 62 63 64 63 63 63 63 64 64 64 64 63 63 63
70 69 69 68 66 65 63 63 61 63 62 61 60 59 60 60 61 61 61 61 60 61 61 61 61 59 60 61 62 62 62 62 63
68 68 69 67 66 65 64 62 60 58 59 58 57 57 58 58 59 59 60 58 58 59 59 60 60 59 55 56 58 60 60 61 62
67 67 67 66 65 64 62 61 58 57 57 58 56 55 57 57 57 57 58 58 58 57 57 57 56 57 57 55 54 55 58 59 61
66 67 66 65 65 62 61 59 59 55 54 55 60 51 55 54 54 54 55 56 56 57 55 55 54 54 55 53 53 54 55 57 59
65 65 65 63 63 62 59 58 58 57 53 51 50 50 53 50 51 51 51 53 54 54 53 53 53 52 53 50 51 52 53 55 57
65 65 64 63 61 62 58 56 58 59 56 52 45 47 48 48 48 46 46 48 48 51 48 52 52 51 51 51 50 51 52 54 55
MSLP
1019.35 1019.54 1019.65 1019.74 1019.97 1020.14 1020.34 1020.55 1020.71 1020.78 1020.96 1021.07 1021.21 1021.34 1021.44 1021.55 1021.60 1021.68 1021.65 1021.48 1021.48 1021.25 1021.34 1021.43 1020.88 1021.36 1021.39 1021.37 1021.36 1021.22 1021.20 1021.22 1021.26
1019.61 1019.82 1019.83 1020.21 1020.34 1020.44 1020.57 1020.68 1020.85 1020.92 1021.10 1021.25 1021.35 1021.55 1021.67 1021.54 1021.69 1021.74 1021.64 1021.52 1021.51 1021.45 1021.49 1021.52 1021.58 1021.60 1021.64 1021.66 1021.56 1021.56 1021.37 1021.03 1021.32
1019.81 1020.02 1020.16 1020.37 1020.50 1020.60 1020.74 1020.85 1021.03 1021.11 1021.17 1021.35 1021.53 1021.62 1021.83 1021.77 1021.77 1021.82 1021.72 1021.71 1021.61 1021.74 1021.88 1021.97 1022.00 1021.99 1022.04 1022.11 1022.14 1022.01 1021.99 1021.82 1021.86
1020.01 1020.24 1020.39 1020.47 1020.62 1020.72 1020.83 1020.99 1021.13 1021.27 1021.34 1021.44 1021.65 1021.78 1021.91 1021.75 1021.86 1021.86 1021.75 1021.87 1021.89 1022.09 1022.14 1022.30 1022.42 1022.43 1022.50 1022.66 1022.54 1022.52 1022.47 1022.45 1022.39
1020.16 1020.38 1020.52 1020.59 1020.66 1020.83 1021.01 1021.09 1021.30 1021.45 1021.52 1021.58 1021.80 1022.07 1022.09 1022.05 1022.10 1022.10 1021.95 1022.15 1022.21 1022.37 1022.35 1022.51 1022.73 1022.93 1022.89 1023.03 1022.93 1022.92 1023.01 1023.02 1022.95
1020.31 1020.48 1020.64 1020.70 1020.78 1020.93 1021.16 1021.35 1021.63 1021.78 1021.87 1021.95 1022.10 1022.19 1022.22 1022.19 1022.15 1022.21 1022.36 1022.49 1022.70 1022.82 1022.90 1022.90 1023.05 1023.29 1023.31 1023.42 1023.38 1023.30 1023.41 1023.39 1023.43
1020.29 1020.50 1020.64 1020.71 1020.81 1021.02 1021.24 1021.52 1021.87 1022.00 1022.08 1022.24 1022.46 1022.38 1022.55 1022.56 1022.54 1022.49 1022.57 1022.67 1022.96 1023.15 1023.24 1023.33 1023.41 1023.65 1023.73 1023.78 1023.73 1023.65 1023.70 1023.69 1023.68
1020.17 1020.38 1020.59 1020.71 1020.89 1021.02 1021.26 1021.59 1021.83 1022.04 1022.22 1022.37 1022.48 1022.70 1022.77 1022.76 1022.83 1022.91 1022.74 1022.92 1023.15 1023.37 1023.47 1023.61 1023.74 1023.89 1023.96 1024.06 1024.08 1024.07 1024.06 1024.05 1023.95
1020.04 1020.25 1020.56 1020.68 1020.86 1021.14 1021.42 1021.65 1021.99 1022.27 1022.37 1022.40 1022.55 1022.67 1022.79 1022.92 1023.04 1023.00 1022.89 1023.02 1023.36 1023.68 1023.66 1023.90 1023.97 1024.10 1024.19 1024.31 1024.35 1024.33 1024.31 1024.31 1024.28
1019.70 1020.04 1020.36 1020.64 1020.94 1021.12 1021.37 1021.63 1021.86 1022.20 1022.37 1022.63 1022.70 1022.85 1022.97 1023.18 1023.26 1023.19 1023.20 1023.25 1023.47 1023.81 1023.85 1024.11 1024.16 1024.24 1024.39 1024.55 1024.59 1024.61 1024.60 1024.52 1024.45
1019.31 1019.69 1020.16 1020.46 1020.77 1021.00 1021.17 1021.41 1021.67 1021.92 1022.26 1022.57 1022.87 1022.98 1023.16 1023.24 1023.41 1023.33 1023.34 1023.49 1023.67 1023.81 1023.99 1024.18 1024.26 1024.31 1024.45 1024.60 1024.72 1024.88 1024.94 1024.85 1024.75
1018.76 1019.01 1019.50 1019.91 1020.37 1020.86 1021.30 1021.68 1022.02 1022.13 1022.48 1022.55 1022.90 1023.18 1023.25 1023.33 1023.40 1023.56 1023.64 1023.71 1023.93 1023.99 1024.10 1024.31 1024.52 1024.56 1024.61 1024.66 1024.81 1024.95 1025.04 1025.03 1024.97
1018.39 1018.64 1018.90 1019.36 1019.99 1020.47 1020.88 1021.35 1021.71 1022.03 1022.35 1022.54 1022.83 1023.11 1023.27 1023.43 1023.54 1023.75 1023.82 1023.92 1023.97 1024.20 1024.41 1024.57 1024.57 1024.73 1024.75 1024.66 1024.72 1024.91 1025.03 1025.03 1024.99
1017.85 1018.13 1018.42 1018.88 1019.41 1020.05 1020.59 1021.17 1021.45 1021.89 1022.30 1022.57 1022.92 1023.25 1023.25 1023.34 1023.61 1023.74 1023.95 1024.13 1024.17 1024.39 1024.52 1024.71 1024.81 1024.84 1024.81 1024.77 1024.72 1024.87 1025.02 1024.99 1024.94
1017.30 1017.64 1017.98 1018.44 1018.85 1019.48 1020.23 1020.71 1021.40 1021.59 1022.00 1022.54 1023.00 1023.22 1023.38 1023.40 1023.40 1023.63 1024.06 1024.24 1024.33 1024.49 1024.62 1024.83 1025.05 1025.10 1025.01 1024.89 1024.83 1024.84 1024.85 1024.93 1024.85
1016.46 1016.85 1017.28 1017.85 1018.17 1018.67 1019.44 1020.27 1021.05 1021.55 1021.84 1022.49 1023.10 1023.36 1023.45 1023.39 1023.51 1023.66 1023.73 1024.13 1024.38 1024.42 1024.60 1024.87 1025.05 1025.36 1025.51 1025.39 1025.12 1024.94 1024.91 1024.86 1024.79
1015.37 1015.95 1016.48 1017.01 1017.66 1018.27 1018.77 1019.36 1020.44 1021.18 1021.57 1021.74 1022.58 1022.90 1023.13 1023.14 1023.23 1023.54 1023.58 1023.72 1024.15 1024.42 1024.46 1024.78 1025.01 1025.20 1025.33 1025.48 1025.38 1025.26 1025.09 1024.82 1024.68
1014.22 1014.65 1015.37 1016.05 1016.76 1017.22 1017.92 1018.70 1019.20 1020.27 1021.27 1021.33 1021.39 1022.41 1022.19 1022.66 1023.14 1023.24 1023.34 1023.52 1023.70 1023.97 1024.32 1024.64 1024.92 1024.97 1025.06 1025.37 1025.41 1025.21 1025.18 1024.97 1024.65
1013.43 1013.90 1014.42 1015.01 1015.77 1016.38 1016.98 1017.82 1018.42 1019.17 1019.91 1021.29 1021.21 1021.20 1021.76 1022.11 1022.85 1023.17 1023.32 1023.51 1023.58 1023.52 1023.95 1024.14 1024.65 1024.95 1025.15 1025.34 1025.45 1025.39 1025.29 1025.03 1024.81
1012.70 1013.13 1013.54 1014.09 1014.62 1015.12 1016.01 1017.00 1017.66 1017.96 1018.65 1019.46 1020.72 1021.36 1021.69 1021.73 1022.16 1022.42 1022.95 1023.28 1023.40 1023.60 1024.08 1024.21 1024.40 1024.95 1025.17 1025.31 1025.40 1025.45 1025.28 1025.04 1024.81
Wind_Speed
9 9 11 12 12 12 12 11 11 12 11 9 8 8 7 6 5 4 4 3 3 10 6 8 9 10 7 8 2 2 3 2 3
9 6 9 9 9 9 10 10 11 10 9 8 7 7 8 6 5 5 5 7 11 14 16 17 18 15 16 16 17 17 17 12 7
10 9 10 8 8 8 9 10 10 9 8 7 7 8 7 6 6 5 5 6 11 13 14 14 13 14 14 15 14 15 16 18 17
10 10 10 9 9 9 9 9 9 8 7 8 9 10 8 7 5 5 4 9 12 10 11 13 13 13 13 12 13 14 14 13 15
10 8 9 10 10 9 9 9 9 8 7 7 11 10 8 6 5 4 5 9 10 8 10 12 13 12 12 12 12 13 13 13 14
9 6 5 6 8 9 7 9 9 10 9 10 10 6 4 5 4 3 7 9 10 8 9 10 12 11 11 11 11 12 11 12 12
6 6 6 6 7 8 6 9 9 6 4 5 6 3 4 3 3 3 4 9 10 9 9 10 10 10 10 10 10 10 10 10 10
5 4 4 4 5 4 5 6 4 5 4 3 4 4 4 3 2 2 2 9 10 9 9 9 9 9 9 9 9 10 10 10 10
6 4 5 5 4 5 4 3 4 5 5 5 5 5 3 2 2 2 2 10 10 9 9 8 8 8 8 8 8 8 9 9 9
7 6 5 5 4 5 5 4 4 5 5 4 4 4 4 4 2 2 7 10 9 8 8 7 7 6 7 7 7 7 7 8 7
8 7 7 6 6 5 5 6 5 5 5 5 4 5 4 5 4 3 5 8 9 9 8 6 5 5 6 6 6 6 6 7 6
10 8 8 8 7 7 5 5 4 4 3 5 4 4 5 4 5 4 4 6 7 8 7 7 5 5 5 5 5 5 4 4 5
11 8 9 9 7 7 6 6 5 4 4 4 4 4 4 5 5 4 4 4 4 6 7 5 6 5 4 4 4 4 4 4 4
11 9 9 10 8 7 7 5 5 5 5 4 4 3 4 5 4 5 5 5 4 4 7 6 6 5 3 3 3 4 4 6 6
12 10 11 10 9 8 8 8 5 4 5 4 3 2 2 3 4 6 4 4 5 4 4 4 3 3 2 1 2 4 5 7 7
14 10 12 11 11 12 12 7 9 4 6 5 2 2 2 4 4 4 5 6 5 5 4 3 2 1 4 4 4 5 7 9 10
14 14 13 14 10 12 13 12 6 3 7 4 2 3 4 4 5 4 5 7 5 5 5 5 4 2 1 3 5 6 7 8 9
16 16 13 13 12 11 13 12 12 7 6 4 3 3 5 3 3 6 5 7 6 5 5 5 5 4 3 1 2 4 6 8 9
16 15 15 14 10 12 12 10 11 8 8 4 4 2 1 4 3 2 4 5 7 8 6 6 5 4 3 4 3 4 6 8 10
15 16 15 15 12 13 14 13 14 10 8 5 4 1 1 1 3 4 4 3 5 5 3 4 4 5 4 3 2 4 7 10 13
Wind_Direction
154 113 117 86 88 98 104 107 109 114 118 115 106 91 93 119 102 76 49 21 357 69 118 69 75 106 85 67 32 300 327 253 141
155 115 106 110 113 114 114 112 113 116 116 111 103 90 95 118 104 84 55 73 79 75 77 69 70 74 68 59 57 62 58 64 98
154 144 140 142 136 128 120 117 118 117 117 113 103 111 108 111 103 93 75 82 85 82 78 70 71 67 61 57 54 53 53 57 59
155 155 154 151 147 137 132 125 121 119 120 117 110 115 111 119 112 109 89 96 89 81 86 84 77 72 68 64 64 65 61 52 53
151 153 160 155 149 141 138 130 120 117 112 120 118 106 102 105 106 100 95 95 89 87 98 89 80 76 73 70 67 66 64 62 58
162 149 166 151 145 140 140 124 112 97 95 102 108 107 100 110 108 108 110 100 89 85 86 89 83 78 76 72 69 69 66 63 59
172 168 170 174 148 132 135 120 108 103 104 103 96 94 108 97 96 99 109 116 99 93 92 87 89 80 74 70 68 65 63 62 60
181 172 176 180 145 142 139 131 126 119 124 122 123 120 116 108 89 39 107 124 109 104 101 96 94 86 80 75 68 63 57 50 48
186 184 182 183 173 157 148 147 135 136 135 137 141 138 133 129 108 59 194 129 122 115 109 107 100 90 81 76 69 65 59 53 46
191 196 190 189 173 174 164 167 158 153 145 141 147 140 133 128 106 85 103 119 128 125 116 110 102 95 88 80 73 69 61 52 49
195 197 199 193 191 184 181 180 176 163 160 145 146 147 149 144 137 124 129 118 131 135 127 121 117 102 99 81 69 68 52 41 38
197 199 198 198 189 183 171 166 167 157 153 149 149 160 161 160 151 139 127 128 122 139 138 127 114 100 82 71 59 53 40 24 21
204 203 202 195 186 183 178 173 173 178 183 163 161 165 168 167 165 160 151 146 142 136 130 131 128 104 77 74 64 40 23 356 340
207 207 205 191 188 187 180 175 180 181 179 166 161 176 179 179 177 179 170 162 149 143 134 122 118 107 89 77 45 16 2 347 326
205 209 205 195 190 188 182 178 176 187 170 155 161 175 194 192 196 191 183 174 164 166 154 148 123 86 55 13 357 343 331 330 320
201 208 207 201 200 193 189 173 185 169 161 138 154 195 228 216 211 194 188 185 184 178 172 178 167 105 26 8 339 323 322 318 311
197 203 208 203 199 195 187 180 160 152 177 151 119 204 198 211 200 196 199 193 185 194 180 179 167 151 80 345 354 340 325 320 313
198 201 200 199 197 194 189 186 178 164 187 198 166 156 223 161 174 210 205 196 192 189 179 176 171 163 134 88 49 15 359 336 326
200 201 199 198 195 192 194 184 189 163 169 192 203 128 129 185 196 208 212 212 209 190 185 177 173 156 134 97 39 21 348 330 321
206 207 200 193 194 197 187 183 193 198 170 167 132 199 172 120 168 194 189 206 202 198 176 189 167 154 145 131 66 3 340 331 321